Location: Napier
(39.4830°S, 176.9170°E)
Time: 13:44:14
(UTC+12:00)

Daily predictions for brighter satellites

Satellite Brightness Start Highest point End
(mag) Time Altitude Azimuth Time Altitude Azimuth Time Altitude Azimuth
Cosmos 405 Rocket 2.8 17:31:24 10° N 17:35:03 52° E 17:38:49 10° SSE
Cosmos 1633 3.7 17:41:45 10° NE 17:44:39 23° E 17:47:35 10° SE
USA 234 3.4 17:38:07 10° SE 17:44:42 64° NE 17:51:12 10° NW
SL-16 R/B 3.3 17:40:38 10° NNE 17:44:59 23° E 17:49:23 10° SE
Cosmos 1354 Rocket 4.1 17:39:42 10° SSW 17:45:03 90° ESE 17:50:19 10° NNE
Cosmos 1076 Rocket 3.9 17:43:02 10° NNE 17:47:07 44° E 17:51:16 10° SSE
CZ-2C R/B 4.5 17:45:09 10° ESE 17:47:49 15° E 17:50:29 10° NE
Cosmos 1606 3.4 17:45:36 10° SSE 17:49:03 31° ESE 17:52:28 10° NE
CZ-4B R/B 1.1 17:46:59 10° NNE 17:50:02 67° ESE 17:53:10 10° S
IRIDIUM 104 4.3 17:44:45 10° S 17:50:05 77° E 17:55:19 10° N
Atlas Centaur 2 3.7 17:46:52 10° WNW 17:51:07 28° N 17:56:18 10° NE
Cosmos 2151 3.9 17:48:17 10° NE 17:51:48 26° E 17:55:23 10° SSE
Meteor PRIRODA 3.8 17:52:07 10° S 17:55:55 77° WSW 17:59:37 10° NNW
IRIDIUM 114 4.4 17:53:54 10° S 17:59:14 87° W 18:04:29 10° N
Cosmos 1437 Rocket 2.9 17:55:56 10° S 17:59:40 47° ESE 18:03:21 10° NNE
ERS-2 3.5 17:58:53 10° ENE 18:01:29 19° ESE 18:04:08 10° SSE
Cosmos 2292 Rocket 4.2 17:58:36 10° NNE 18:02:41 42° E 18:08:04 10° SSE
Cosmos 1356 4.4 17:59:58 10° NNW 18:03:19 50° W 18:06:43 10° S
ATLAS CENTAUR Rocket 3.9 18:01:41 10° NNW 18:04:15 15° N 18:06:34 10° NE
DMSP B5D1-3 4.5 17:59:21 10° NNE 18:04:27 72° ESE 18:09:40 10° S
Cosmos 1242 Rocket 3.6 18:01:50 10° SSE 18:04:57 24° ESE 18:08:01 10° NE
deb Chang Zheng 4 3.5 18:01:52 10° SSE 18:06:16 73° ENE 18:10:37 10° N
ATLAS 3B R/B 3.4 17:59:31 10° NW 18:06:57 61° SW 18:14:16 10° SSE
Cosmos 2333 Rocket 4.4 18:02:58 10° WNW 18:07:13 21° SW 18:11:30 10° S
Cosmos 2058 4.0 18:03:38 10° NNW 18:07:38 47° W 18:11:43 10° S
Envisat 3.6 18:03:06 10° S 18:08:12 61° WSW 18:13:13 10° NNW
Cosmos 2237 Rocket 2.6 18:07:25 10° NNW 18:13:03 68° WSW 18:18:48 10° SSE
Cosmos 967 Rocket 4.5 18:07:47 10° SSW 18:14:12 66° ESE 18:20:29 10° NE
SJ 16-02 2.0 18:10:19 10° S 18:14:23 33° ESE 18:18:24 10° NE
SMAP 3.2 18:10:08 10° SSE 18:14:45 51° E 18:19:18 10° N
Cosmos 1943 Rocket 3.3 18:16:14 10° S 18:20:42 23° SE 18:21:53 21° ESE
NOAA 6 4.0 18:15:54 10° SSE 18:21:06 75° ENE 18:26:14 10° N
H-2A R/B 3.5 18:21:39 22° ENE 18:21:39 22° ENE 18:24:27 10° NNE
Cosmos 1689 Rocket 2.2 18:20:01 10° NNE 18:22:46 44° ESE 18:25:36 10° S
Cosmos 1553 Rocket 3.9 18:16:56 10° S 18:23:03 64° E 18:29:06 10° NNE
Cosmos 1867 4.3 18:20:16 10° SSW 18:25:01 30° SE 18:26:56 24° E
Cosmos 1763 Rocket 4.3 18:22:03 10° NNE 18:26:38 31° E 18:28:30 24° ESE
Hubble Space Telescope 3.2 18:34:31 10° N 18:36:04 12° NNE 18:37:25 10° NE
Okean O Rocket 2.0 18:34:14 27° SE 18:36:11 41° E 18:40:26 10° N
PSLV R/B 4.0 18:33:27 10° S 18:37:15 67° WSW 18:40:57 10° NNW
Cosmos 1417 Rocket 4.4 18:31:52 10° S 18:38:18 72° E 18:44:36 10° NNE
Lacrosse 5 1.9 18:34:49 10° SW 18:39:56 61° SE 18:42:25 29° ENE
Cosmos 2278 Rocket 3.2 18:34:32 10° SW 18:40:01 48° WNW 18:45:27 10° N
Cosmos 2369 Rocket 3.8 18:39:39 10° S 18:41:48 16° SSE 18:41:48 16° SSE
Meteor 1-26 Rocket 4.5 18:38:30 10° S 18:44:28 52° ESE 18:50:13 10° NNE
MOS 1-B 4.3 18:39:42 10° SSE 18:45:37 84° ENE 18:51:28 10° NNW
Cosmos 1933 3.3 18:42:40 10° S 18:46:50 63° E 18:50:53 10° NNE
BREEZE-M DEB (TANK) 4.0 18:45:00 10° NNW 18:47:27 29° NE 18:47:27 29° NE
Meteor 2-21 Rocket 4.4 18:42:31 10° N 18:48:40 66° E 18:54:54 10° SSE
CZ-4B R/B 3.1 18:44:38 10° SSE 18:49:52 64° ENE 18:55:09 10° N
CZ-2C R/B 3.9 18:45:08 10° N 18:50:31 46° W 18:55:56 10° SSW
Cosmos 468 Rocket 4.0 18:50:20 10° N 18:55:33 59° ENE 18:57:19 39° SE
Okean 3 Rocket 3.6 18:53:59 10° N 18:57:59 56° ENE 18:57:59 56° ENE
Cosmos 990 Rocket 4.4 18:53:20 10° S 18:57:40 42° SE 18:57:40 42° SE
Meteor 2-3 Rocket 3.7 18:55:55 10° N 19:01:34 83° W 19:07:19 10° S
Cosmos 1655 Rocket 4.0 18:55:58 10° N 19:02:17 89° W 19:08:46 10° S
Cosmos 1898 Rocket 4.5 18:57:40 10° S 19:00:49 30° SSE 19:00:49 30° SSE
H-2A R/B 3.9 19:06:48 15° NNE 19:06:48 15° NNE 19:07:47 10° NNE
Cosmos 1766 Rocket 3.5 18:59:53 10° N 19:04:22 69° E 19:04:23 69° E
Cosmos 1461 4.0 19:02:30 10° SW 19:06:44 48° WNW 19:11:06 10° N
ATLAS CENTAUR R/B 2.8 19:16:23 10° SSW 19:18:32 28° SSW 19:18:32 28° SSW
Cosmos 1939 Rocket 4.1 19:17:52 18° S 19:20:38 42° WSW 19:24:35 10° NW
Cosmos 883 Rocket 4.4 19:20:19 10° S 19:26:36 88° E 19:32:54 10° N
Lacrosse 5 rocket 3.5 19:22:22 10° NNW 19:24:00 20° N 19:24:00 20° N
USA 234 4.2 19:24:16 26° SSE 19:27:27 41° SSW 19:33:32 10° W
CZ-2C R/B 3.5 19:25:08 22° S 19:28:03 53° WSW 19:32:42 10° NNW
SL-16 R/B 3.1 19:23:17 10° NW 19:28:44 47° WSW 19:32:00 23° S
ERS-2 4.2 19:31:39 10° NNW 19:34:48 27° W 19:38:00 10° SW
Atlas Centaur 2 4.4 19:35:43 10° WNW 19:39:41 19° NNW 19:41:58 16° N
Cosmos 2297 4.2 19:39:38 10° SSW 19:45:20 59° WNW 19:46:43 46° NNW
SJ 16-02 3.8 19:49:23 10° SW 19:52:42 21° W 19:56:00 10° NW
Cosmos 1943 Rocket 3.1 19:59:13 10° SSW 20:03:29 44° WSW 20:03:29 44° WSW
Okean O Rocket 4.1 20:11:42 18° WSW 20:12:12 19° WSW 20:15:20 10° WNW
Lacrosse 5 4.2 20:18:40 10° WSW 20:21:42 21° WNW 20:21:42 21° WNW
Cosmos 2369 Rocket 4.5 20:22:29 10° SSW 20:23:38 16° SSW 20:23:38 16° SSW
